| time (UTC) | temp C | wind direction | speed KPH | gust KPH | rain 1hr cm | rain 24hr cm | rain mn cm | humidity % | barometer mb |
| 20260904144600 | 27 | 315 | 4.8 | 14.5 | 0.00 | 0.99 | 0.99 | 83 | 1014.1 |
| 20260904143109 | 27 | 342 | 6.4 | 16.1 | 0.00 | 0.99 | 0.99 | 84 | 1013.9 |
| 20260904141602 | 27 | 290 | 4.8 | 14.5 | 0.00 | 0.99 | 0.99 | 85 | 1013.7 |
| 20260904140104 | 26 | 322 | 4.8 | 14.5 | 0.00 | 0.99 | 0.99 | 88 | 1013.7 |
| 20260904134603 | 26 | 301 | 4.8 | 9.7 | 0.00 | 0.99 | 0.99 | 89 | 1013.7 |
| 20260904133114 | 25 | 312 | 6.4 | 12.9 | 0.00 | 0.99 | 0.99 | 92 | 1013.8 |
| 20260904131604 | 25 | 350 | 4.8 | 12.9 | 0.00 | 0.99 | 0.99 | 93 | 1013.7 |
| 20260904124608 | 23 | 324 | 3.2 | 8.0 | 0.00 | 0.99 | 0.99 | 98 | 1013.7 |
| 20260904123116 | 23 | 11 | 3.2 | 9.7 | 0.00 | 0.99 | 0.99 | 98 | 1013.7 |
| 20260904121603 | 23 | 329 | 3.2 | 8.0 | 0.00 | 0.99 | 0.99 | 98 | 1013.9 |
| 20260904120110 | 22 | 351 | 1.6 | 9.7 | 0.00 | 0.99 | 0.99 | 98 | 1013.8 |
| 20260904114605 | 22 | 318 | 1.6 | 8.0 | 0.00 | 0.99 | 0.99 | 98 | 1013.7 |
| 20260904113103 | 22 | 6 | 4.8 | 9.7 | 0.00 | 0.99 | 0.99 | 99 | 1013.8 |
| 20260904111606 | 22 | 354 | 1.6 | 6.4 | 0.03 | 0.99 | 0.99 | 99 | 1013.8 |
| 20260904110110 | 22 | 315 | 1.6 | 3.2 | 0.03 | 0.99 | 0.99 | 99 | 1013.4 |
| 20260904104604 | 22 | 0 | 0.0 | 4.8 | 0.03 | 0.99 | 0.99 | 99 | 1013.1 |
| 20260904103101 | 22 | 0 | 0.0 | 4.8 | 0.03 | 0.99 | 0.99 | 99 | 1013.0 |
| 20260904101615 | 22 | 0 | 0.0 | 0.0 | 0.00 | 0.97 | 0.97 | 99 | 1012.9 |
| 20260904094604 | 22 | 145 | 1.6 | 4.8 | 0.00 | 0.97 | 0.97 | 100 | 1012.8 |
| 20260904093118 | 22 | 0 | 0.0 | 0.0 | 0.00 | 0.97 | 0.97 | 100 | 1012.4 |
| 20260904091601 | 22 | 0 | 0.0 | 0.0 | 0.03 | 0.97 | 0.97 | 99 | 1012.8 |
| 20260904090059 | 22 | 0 | 0.0 | 0.0 | 0.05 | 0.97 | 0.97 | 99 | 1012.7 |
| 20260904084603 | 22 | 0 | 0.0 | 0.0 | 0.08 | 0.97 | 0.97 | 99 | 1012.7 |
| 20260904083105 | 23 | 0 | 0.0 | 0.0 | 0.13 | 0.97 | 0.97 | 99 | 1012.9 |
| 20260904081601 | 23 | 0 | 0.0 | 3.2 | 0.15 | 0.94 | 0.94 | 100 | 1013.2 |
| 20260904074603 | 23 | 0 | 0.0 | 1.6 | 0.28 | 0.89 | 0.89 | 99 | 1013.9 |
| 20260904073101 | 23 | 0 | 0.0 | 1.6 | 0.53 | 0.84 | 0.84 | 99 | 1013.9 |
| 20260904071601 | 23 | 0 | 0.0 | 4.8 | 0.71 | 0.79 | 0.79 | 99 | 1013.8 |
| 20260904070107 | 23 | 122 | 0.0 | 9.7 | 0.71 | 0.71 | 0.71 | 99 | 1015.2 |
| 20260904064602 | 23 | 313 | 6.4 | 20.9 | 0.61 | 0.61 | 0.61 | 98 | 1016.2 |
| 20260904063101 | 23 | 330 | 8.0 | 19.3 | 0.30 | 0.30 | 0.30 | 98 | 1015.8 |
| 20260904061600 | 23 | 333 | 12.9 | 29.0 | 0.08 | 0.08 | 0.08 | 97 | 1015.3 |
| 20260904060057 | 25 | 295 | 8.0 | 22.5 | 0.00 | 0.00 | 0.00 | 96 | 1014.4 |
| 20260904054604 | 25 | 359 | 0.0 | 3.2 | 0.00 | 0.00 | 0.00 | 100 | 1014.1 |
| 20260904053102 | 25 | 0 | 0.0 | 0.0 | 0.00 | 0.00 | 0.00 | 100 | 1012.8 |
| 20260904051604 | 25 | 0 | 0.0 | 0.0 | 0.00 | 0.00 | 0.00 | 100 | 1013.4 |
| 20260904050104 | 25 | 0 | 0.0 | 0.0 | 0.00 | 0.00 | 0.00 | 100 | 1013.2 |
| 20260904044610 | 25 | 0 | 0.0 | 0.0 | 0.00 | 0.00 | 0.00 | 100 | 1013.4 |
| 20260904043059 | 25 | 0 | 0.0 | 0.0 | 0.00 | 0.00 | 0.00 | 100 | 1013.4 |
| 20260904041604 | 25 | 0 | 0.0 | 0.0 | 0.00 | 0.00 | 0.00 | 100 | 1013.3 |
| 20260904040104 | 25 | 0 | 0.0 | 0.0 | 0.00 | 0.00 | 0.00 | 100 | 1013.7 |
| 20260904034601 | 25 | 0 | 0.0 | 0.0 | 0.00 | 0.00 | 0.00 | 100 | 1014.0 |
| 20260904033059 | 25 | 0 | 0.0 | 0.0 | 0.00 | 0.00 | 0.00 | 99 | 1014.1 |
| 20260904031553 | 25 | 0 | 0.0 | 0.0 | 0.00 | 0.00 | 0.00 | 99 | 1014.2 |
| 20260904030103 | 25 | 0 | 0.0 | 0.0 | 0.00 | 0.00 | 0.00 | 99 | 1013.8 |
| 20260904024601 | 25 | 0 | 0.0 | 0.0 | 0.00 | 0.00 | 0.00 | 99 | 1013.9 |
| 20260904023103 | 25 | 0 | 0.0 | 0.0 | 0.00 | 0.00 | 0.00 | 99 | 1013.9 |
| 20260904021602 | 25 | 0 | 0.0 | 0.0 | 0.00 | 0.00 | 0.00 | 99 | 1013.9 |
| 20260904020101 | 25 | 0 | 0.0 | 0.0 | 0.00 | 0.00 | 0.00 | 99 | 1014.3 |
| 20260904014600 | 25 | 0 | 0.0 | 0.0 | 0.00 | 0.00 | 0.00 | 99 | 1014.5 |
| 20260904013102 | 25 | 0 | 0.0 | 0.0 | 0.00 | 0.00 | 0.00 | 99 | 1014.8 |
| 20260904011613 | 25 | 0 | 0.0 | 0.0 | 0.00 | 0.00 | 0.00 | 99 | 1015.1 |
| 20260904010108 | 25 | 0 | 0.0 | 0.0 | 0.00 | 0.00 | 0.00 | 98 | 1015.1 |
| 20260904004603 | 25 | 0 | 0.0 | 0.0 | 0.00 | 0.00 | 0.00 | 98 | 1014.9 |
| 20260904003102 | 26 | 0 | 0.0 | 0.0 | 0.00 | 0.00 | 0.00 | 97 | 1014.8 |
| 20260904001558 | 26 | 0 | 0.0 | 0.0 | 0.00 | 0.00 | 0.00 | 96 | 1014.6 |
| 20260903234604 | 26 | 0 | 0.0 | 0.0 | 0.00 | 0.00 | 0.00 | 95 | 1014.1 |
| 20260903233102 | 27 | 0 | 0.0 | 0.0 | 0.00 | 0.00 | 0.00 | 94 | 1014.0 |
| 20260903231601 | 27 | 0 | 0.0 | 0.0 | 0.00 | 0.00 | 0.00 | 93 | 1014.1 |
| 20260903230104 | 27 | 0 | 0.0 | 0.0 | 0.00 | 0.00 | 0.00 | 92 | 1013.9 |
| 20260903224602 | 28 | 0 | 0.0 | 0.0 | 0.00 | 0.00 | 0.00 | 90 | 1013.9 |
| 20260903223058 | 28 | 0 | 0.0 | 1.6 | 0.00 | 0.00 | 0.00 | 88 | 1013.9 |
| 20260903221604 | 29 | 0 | 0.0 | 1.6 | 0.00 | 0.00 | 0.00 | 86 | 1014.1 |
| 20260903220123 | 29 | 0 | 1.6 | 8.0 | 0.00 | 0.00 | 0.00 | 85 | 1014.1 |
| 20260903214600 | 30 | 78 | 0.0 | 8.0 | 0.00 | 0.00 | 0.00 | 84 | 1014.2 |
| 20260903213101 | 30 | 0 | 0.0 | 6.4 | 0.00 | 0.00 | 0.00 | 82 | 1014.3 |
| 20260903211558 | 31 | 321 | 1.6 | 8.0 | 0.00 | 0.00 | 0.00 | 81 | 1014.4 |
| 20260903210109 | 31 | 8 | 0.0 | 8.0 | 0.00 | 0.00 | 0.00 | 81 | 1014.4 |
| 20260903204600 | 31 | 18 | 3.2 | 8.0 | 0.00 | 0.00 | 0.00 | 81 | 1014.6 |
| 20260903203130 | 30 | 47 | 1.6 | 11.3 | 0.00 | 0.00 | 0.00 | 80 | 1014.6 |
| 20260903201606 | 31 | 62 | 1.6 | 9.7 | 0.00 | 0.00 | 0.00 | 80 | 1014.9 |
| 20260903200104 | 31 | 0 | 0.0 | 6.4 | 0.00 | 0.00 | 0.00 | 81 | 1014.7 |
| 20260903194602 | 30 | 304 | 1.6 | 11.3 | 0.00 | 0.00 | 0.00 | 81 | 1015.0 |
| 20260903193101 | 30 | 294 | 3.2 | 9.7 | 0.00 | 0.00 | 0.00 | 83 | 1015.1 |
| 20260903191604 | 29 | 0 | 1.6 | 8.0 | 0.00 | 0.00 | 0.00 | 86 | 1015.2 |
| 20260903184601 | 29 | 0 | 0.0 | 6.4 | 0.00 | 0.00 | 0.00 | 87 | 1015.6 |
| 20260903183102 | 29 | 343 | 1.6 | 4.8 | 0.00 | 0.00 | 0.00 | 86 | 1015.7 |
| 20260903181600 | 29 | 0 | 1.6 | 6.4 | 0.00 | 0.00 | 0.00 | 87 | 1016.0 |
| 20260903180107 | 28 | 123 | 0.0 | 1.6 | 0.00 | 0.00 | 0.00 | 89 | 1015.8 |
| 20260903174609 | 28 | 0 | 0.0 | 1.6 | 0.00 | 0.00 | 0.00 | 90 | 1016.1 |
| 20260903173101 | 28 | 0 | 0.0 | 4.8 | 0.00 | 0.00 | 0.00 | 87 | 1015.9 |
| 20260903171615 | 29 | 150 | 1.6 | 3.2 | 0.00 | 0.00 | 0.00 | 87 | 1016.2 |
| 20260903170107 | 29 | 0 | 0.0 | 6.4 | 0.00 | 0.00 | 0.00 | 86 | 1016.2 |
| 20260903164637 | 29 | 70 | 0.0 | 8.0 | 0.00 | 0.00 | 0.00 | 83 | 1016.5 |
| 20260903163103 | 29 | 0 | 1.6 | 4.8 | 0.00 | 0.00 | 0.00 | 88 | 1016.7 |
| 20260903161608 | 28 | 86 | 0.0 | 6.4 | 0.00 | 0.00 | 0.00 | 84 | 1016.8 |
| 20260903160105 | 28 | 77 | 1.6 | 6.4 | 0.00 | 0.00 | 0.00 | 86 | 1017.1 |
| 20260903154602 | 28 | 143 | 1.6 | 4.8 | 0.00 | 0.00 | 0.00 | 89 | 1017.3 |
| 20260903153126 | 27 | 93 | 0.0 | 8.0 | 0.00 | 0.00 | 0.00 | 90 | 1017.0 |
| 20260903151601 | 27 | 0 | 0.0 | 4.8 | 0.00 | 0.00 | 0.00 | 90 | 1016.8 |
| 20260903150101 | 27 | 131 | 3.2 | 8.0 | 0.00 | 0.00 | 0.00 | 91 | 1016.9 |